Fairbanks Ft. Wainwright, AK

11:40 PM AKDT on September 23, 2017 (GMT -0800)
Ladd Army Air Field

Weather History for PAFB - March, 2014

Change the Weather History Date:

Sunday, March 23, 2014

  Actual Average Record
Temperature  
Mean Temperature 20 °F -  
Max Temperature 41 °F 22 °F 50 °F (1998)
Min Temperature 0 °F 0 °F -16 °F (2012)
Degree Days  
Heating Degree Days 44    
Moisture  
Dew Point 2 °F    
Average Humidity 42    
Maximum Humidity 72    
Minimum Humidity 22    
Precipitation  
Precipitation 0.00 in - - ()
Sea Level Pressure  
Sea Level Pressure 30.56 in    
Wind  
Wind Speed 7 mph (ENE)    
Max Wind Speed 12 mph    
Max Gust Speed -    
Visibility 10 miles    
Events      
Averages and records for this station are not official NWS values.
T = Trace of Precipitation, MM = Missing Value Source: NWS Daily Summary

Daily Weather History Graph

Daily Weather History Graph

Search for Another Location

Airport or City:

Trip Planner

Search our weather history database for the weather conditions in past years. The results will help you decide how hot, cold, wet, or windy it might be!

Date:

Astronomy

Mar. 23, 2014 Rise Set
Actual Time 7:39 AM AKDT 8:16 PM AKDT
Civil Twilight 6:49 AM AKDT 9:06 PM AKDT
Nautical Twilight 5:48 AM AKDT 10:07 PM AKDT
Astronomical Twilight 4:36 AM AKDT 11:21 PM AKDT
Moon 4:38 AM AKDT (3/23) 10:34 AM AKDT (3/23)
Length of Visible Light 14h 16m
Length of Day
12h 37m
Waning Gibbous, 53% of the Moon is Illuminated
Mar 23
Waning Gibbous
Mar 23
Last Quarter
Mar 30
New
Apr 7
First Quarter
Apr 14
Full

Hourly Weather History & Observations

Time (AKDT) Temp. Windchill Dew Point Humidity Pressure Visibility Wind Dir Wind Speed Gust Speed Precip Events Conditions
12:56 AM 19.0 °F 7.5 °F -2.9 °F 38% 30.62 in 10.0 mi East 10.4 mph - N/A   Clear
1:56 AM 10.9 °F 2.9 °F -5.1 °F 49% 30.62 in 10.0 mi ENE 4.6 mph - N/A   Clear
2:56 AM 14.0 °F 1.2 °F -2.0 °F 49% 30.63 in 10.0 mi East 10.4 mph - N/A   Clear
3:56 AM 15.1 °F 1.8 °F -2.9 °F 45% 30.62 in 10.0 mi ENE 11.5 mph - N/A   Clear
4:56 AM 12.0 °F -1.3 °F -4.0 °F 49% 30.61 in 10.0 mi East 10.4 mph - N/A   Clear
5:56 AM 10.9 °F -0.8 °F -2.9 °F 54% 30.61 in 10.0 mi ENE 8.1 mph - N/A   Clear
6:56 AM 9.0 °F -0.9 °F -4.0 °F 56% 30.61 in 10.0 mi ENE 5.8 mph - N/A   Clear
7:56 AM 9.0 °F - -5.1 °F 53% 30.61 in 10.0 mi Calm Calm - N/A   Clear
8:56 AM -0.0 °F - -7.1 °F 72% 30.62 in 10.0 mi Calm Calm - N/A   Clear
9:56 AM 5.0 °F -2.1 °F -4.0 °F 66% 30.62 in 10.0 mi West 3.5 mph - N/A   Clear
10:56 AM 10.9 °F - -2.9 °F 54% 30.61 in 10.0 mi Calm Calm - N/A   Clear
11:56 AM 27.0 °F 19.5 °F -0.0 °F 31% 30.59 in 10.0 mi ENE 6.9 mph - N/A   Clear
12:56 PM 33.1 °F 26.9 °F 1.9 °F 27% 30.58 in 10.0 mi East 6.9 mph - N/A   Clear
1:56 PM 35.1 °F 28.6 °F 5.0 °F 28% 30.56 in 10.0 mi ENE 8.1 mph - N/A   Clear
2:56 PM 39.9 °F 34.5 °F 3.9 °F 22% 30.54 in 10.0 mi NE 8.1 mph - N/A   Clear
3:56 PM 39.9 °F 33.9 °F 9.0 °F 28% 30.52 in 10.0 mi NE 9.2 mph - N/A   Clear
4:56 PM 41.0 °F 35.8 °F 9.0 °F 27% 30.51 in 10.0 mi East 8.1 mph - N/A   Clear
5:56 PM 39.9 °F 35.8 °F 8.1 °F 27% 30.50 in 10.0 mi East 5.8 mph - N/A   Clear
6:56 PM 37.0 °F 34.5 °F 7.0 °F 29% 30.49 in 10.0 mi ENE 3.5 mph - N/A   Clear
7:56 PM 33.1 °F 30.0 °F 7.0 °F 34% 30.48 in 10.0 mi ENE 3.5 mph - N/A   Clear
8:56 PM 27.0 °F 21.6 °F 10.0 °F 49% 30.49 in 10.0 mi East 4.6 mph - N/A   Clear
9:56 PM 28.9 °F 20.4 °F 6.1 °F 38% 30.49 in 10.0 mi ENE 9.2 mph - N/A   Clear
10:56 PM 25.0 °F 15.5 °F 7.0 °F 46% 30.50 in 10.0 mi ENE 9.2 mph - N/A   Clear
11:56 PM 25.0 °F 15.5 °F 7.0 °F 46% 30.50 in 10.0 mi ENE 9.2 mph - N/A   Clear